User: anonymous   Login
Location: Nantong Television Tower
(32.0188°N, 120.8512°E)
Time: 03:43:03
(UTC+08:00)
Language:

ATLAS 3B CENTAUR R/B - Orbit

View from above orbital plane
View from above orbital plane
View from above satellite
View from above satellite

Ground track
Ground track

The orbit data is extracted from the following two-line orbital elements,

1 28118U 03057B   15181.13949966  .00035380  00000-0  59031-3 0  9998
2 28118 028.1634 069.7226 3584897 292.6285 283.4551 08.32238940225866
Epoch (UTC): 30 June 2015 03:20:52
Eccentricity: 0.3584897
inclination: 28.1634°
perigee height: 220 km
apogee height: 7595 km
right ascension of ascending node: 69.7226°
argument of perigee: 292.6285°
revolutions per day: 8.32238940
mean anomaly at epoch: 283.4551°
orbit number at epoch: 22586

The dashed part of the orbit path shows where the satellite is in the earth's shadow,  

DLR